| time (UTC) | temp F | wind direction | speed knots | gust knots | rain 1hr in | rain 24hr in | rain mn in | humidity % | barometer mb |
| 20260906225838 | 64 | 348 | 8.7 | 11.3 | 0.00 | 0.00 | 0.00 | 71 | 1014.7 |
| 20260906225334 | 64 | 323 | 7.0 | 7.8 | 0.00 | 0.00 | 0.00 | 70 | 1014.8 |
| 20260906224829 | 64 | 332 | 8.7 | 9.6 | 0.00 | 0.00 | 0.00 | 71 | 1014.9 |
| 20260906224326 | 64 | 306 | 10.4 | 11.3 | 0.00 | 0.00 | 0.00 | 72 | 1014.9 |
| 20260906223822 | 63 | 329 | 7.8 | 9.6 | 0.00 | 0.00 | 0.00 | 73 | 1014.9 |
| 20260906223318 | 63 | 314 | 10.4 | 13.0 | 0.00 | 0.00 | 0.00 | 73 | 1014.9 |
| 20260906222815 | 63 | 323 | 11.3 | 12.2 | 0.00 | 0.00 | 0.00 | 72 | 1015.2 |
| 20260906222315 | 65 | 315 | 15.6 | 18.2 | 0.00 | 0.00 | 0.00 | 69 | 1015.2 |
| 20260906221813 | 65 | 296 | 6.1 | 7.0 | 0.00 | 0.00 | 0.00 | 64 | 1015.1 |
| 20260906221312 | 66 | 337 | 7.0 | 7.0 | 0.00 | 0.00 | 0.00 | 64 | 1014.8 |
| 20260906220808 | 66 | 309 | 7.0 | 7.8 | 0.00 | 0.00 | 0.00 | 64 | 1014.8 |
| 20260906220304 | 66 | 347 | 7.0 | 7.8 | 0.00 | 0.00 | 0.00 | 64 | 1014.9 |
| 20260906215802 | 67 | 289 | 7.8 | 7.8 | 0.00 | 0.00 | 0.00 | 62 | 1015.1 |
| 20260906215257 | 66 | 356 | 6.1 | 7.8 | 0.00 | 0.00 | 0.00 | 63 | 1015.1 |
| 20260906214755 | 67 | 314 | 3.5 | 4.3 | 0.00 | 0.00 | 0.00 | 63 | 1014.9 |
| 20260906214250 | 66 | 284 | 5.2 | 6.1 | 0.00 | 0.00 | 0.00 | 63 | 1014.8 |
| 20260906213749 | 67 | 297 | 7.8 | 7.8 | 0.00 | 0.00 | 0.00 | 63 | 1015.1 |
| 20260906213249 | 67 | 277 | 7.8 | 8.7 | 0.00 | 0.00 | 0.00 | 62 | 1015.1 |
| 20260906212746 | 66 | 297 | 5.2 | 6.1 | 0.00 | 0.00 | 0.00 | 64 | 1014.8 |
| 20260906212242 | 67 | 314 | 7.0 | 7.8 | 0.00 | 0.00 | 0.00 | 62 | 1015.2 |
| 20260906211742 | 67 | 282 | 5.2 | 6.1 | 0.00 | 0.00 | 0.00 | 63 | 1015.4 |
| 20260906211237 | 66 | 326 | 1.7 | 1.7 | 0.00 | 0.00 | 0.00 | 64 | 1015.2 |
| 20260906210732 | 65 | 327 | 5.2 | 6.1 | 0.00 | 0.00 | 0.00 | 65 | 1015.2 |
| 20260906210227 | 66 | 332 | 5.2 | 6.1 | 0.00 | 0.00 | 0.00 | 64 | 1015.1 |
| 20260906205722 | 66 | 342 | 4.3 | 5.2 | 0.00 | 0.00 | 0.00 | 64 | 1015.4 |
| 20260906205219 | 67 | 300 | 7.8 | 9.6 | 0.00 | 0.00 | 0.00 | 63 | 1015.3 |
| 20260906204719 | 67 | 315 | 6.1 | 7.8 | 0.00 | 0.00 | 0.00 | 62 | 1015.5 |
| 20260906204218 | 67 | 304 | 4.3 | 5.2 | 0.00 | 0.00 | 0.00 | 63 | 1015.3 |
| 20260906203718 | 68 | 246 | 2.6 | 2.6 | 0.00 | 0.00 | 0.00 | 63 | 1015.3 |
| 20260906203213 | 67 | 289 | 5.2 | 6.1 | 0.00 | 0.00 | 0.00 | 63 | 1015.4 |
| 20260906202710 | 66 | 307 | 5.2 | 6.1 | 0.00 | 0.00 | 0.00 | 63 | 1015.5 |
| 20260906202208 | 66 | 256 | 1.7 | 1.7 | 0.00 | 0.00 | 0.00 | 65 | 1015.3 |
| 20260906201704 | 64 | 305 | 2.6 | 2.6 | 0.00 | 0.00 | 0.00 | 66 | 1015.3 |
| 20260906201203 | 66 | 309 | 6.1 | 7.0 | 0.00 | 0.00 | 0.00 | 64 | 1015.6 |
| 20260906200659 | 65 | 303 | 2.6 | 4.3 | 0.00 | 0.00 | 0.00 | 65 | 1015.6 |
| 20260906200155 | 65 | 352 | 3.5 | 4.3 | 0.00 | 0.00 | 0.00 | 67 | 1015.5 |
| 20260906195650 | 64 | 294 | 4.3 | 6.1 | 0.00 | 0.00 | 0.00 | 68 | 1015.6 |
| 20260906195147 | 63 | 331 | 7.0 | 7.8 | 0.00 | 0.00 | 0.00 | 68 | 1015.5 |
| 20260906194642 | 64 | 292 | 4.3 | 7.0 | 0.00 | 0.00 | 0.00 | 69 | 1015.7 |
| 20260906194137 | 63 | 271 | 2.6 | 2.6 | 0.00 | 0.00 | 0.00 | 70 | 1015.7 |
| 20260906193632 | 63 | 324 | 2.6 | 4.3 | 0.00 | 0.00 | 0.00 | 69 | 1015.8 |
| 20260906193127 | 63 | 18 | 2.6 | 2.6 | 0.00 | 0.00 | 0.00 | 69 | 1016.1 |
| 20260906192623 | 63 | 191 | 0.9 | 0.9 | 0.00 | 0.00 | 0.00 | 70 | 1015.8 |
| 20260906192122 | 62 | 227 | 0.9 | 0.9 | 0.00 | 0.00 | 0.00 | 71 | 1016.2 |
| 20260906191618 | 63 | 245 | 0.0 | 0.0 | 0.00 | 0.00 | 0.00 | 70 | 1016.2 |
| 20260906191117 | 62 | 268 | 3.5 | 4.3 | 0.00 | 0.00 | 0.00 | 71 | 1016.2 |
| 20260906190617 | 62 | 341 | 2.6 | 2.6 | 0.00 | 0.00 | 0.00 | 72 | 1016.4 |
| 20260906190112 | 62 | 13 | 2.6 | 4.3 | 0.00 | 0.00 | 0.00 | 74 | 1016.2 |
| 20260906185610 | 61 | 56 | 0.9 | 1.7 | 0.00 | 0.00 | 0.00 | 75 | 1016.4 |
| 20260906185109 | 61 | 21 | 3.5 | 4.3 | 0.00 | 0.00 | 0.00 | 75 | 1016.5 |
| 20260906184604 | 59 | 88 | 4.3 | 6.1 | 0.00 | 0.00 | 0.00 | 77 | 1016.5 |
| 20260906184100 | 59 | 86 | 5.2 | 6.1 | 0.00 | 0.00 | 0.00 | 78 | 1016.6 |
| 20260906183556 | 59 | 51 | 4.3 | 5.2 | 0.00 | 0.00 | 0.00 | 78 | 1016.7 |
| 20260906183051 | 58 | 97 | 4.3 | 4.3 | 0.00 | 0.00 | 0.00 | 79 | 1016.8 |
| 20260906182546 | 57 | 65 | 1.7 | 1.7 | 0.00 | 0.00 | 0.00 | 80 | 1016.8 |
| 20260906182042 | 58 | 77 | 4.3 | 5.2 | 0.00 | 0.00 | 0.00 | 79 | 1017.1 |
| 20260906181538 | 56 | 69 | 3.5 | 5.2 | 0.00 | 0.00 | 0.00 | 81 | 1016.9 |
| 20260906181034 | 56 | 65 | 4.3 | 6.1 | 0.00 | 0.00 | 0.00 | 81 | 1017.1 |
| 20260906180534 | 55 | 71 | 3.5 | 4.3 | 0.00 | 0.00 | 0.00 | 82 | 1017.3 |
| 20260906180033 | 55 | 51 | 4.3 | 5.2 | 0.00 | 0.00 | 0.00 | 83 | 1017.5 |
| 20260906175527 | 55 | 50 | 1.7 | 2.6 | 0.00 | 0.00 | 0.00 | 84 | 1017.6 |
| 20260906175027 | 55 | 13 | 3.5 | 5.2 | 0.00 | 0.00 | 0.00 | 83 | 1017.5 |
| 20260906174524 | 54 | 33 | 1.7 | 2.6 | 0.00 | 0.00 | 0.00 | 84 | 1017.5 |
| 20260906174020 | 54 | 57 | 3.5 | 4.3 | 0.00 | 0.00 | 0.00 | 84 | 1017.7 |
| 20260906173514 | 53 | 13 | 2.6 | 2.6 | 0.00 | 0.00 | 0.00 | 84 | 1017.8 |
| 20260906173011 | 53 | 357 | 3.5 | 4.3 | 0.00 | 0.00 | 0.00 | 85 | 1018.1 |
| 20260906172505 | 53 | 335 | 3.5 | 4.3 | 0.00 | 0.00 | 0.00 | 85 | 1018.3 |
| 20260906172000 | 53 | 288 | 3.5 | 4.3 | 0.00 | 0.00 | 0.00 | 86 | 1018.4 |
| 20260906171455 | 53 | 5 | 2.6 | 2.6 | 0.00 | 0.00 | 0.00 | 86 | 1018.3 |
| 20260906170950 | 53 | 26 | 0.9 | 1.7 | 0.00 | 0.00 | 0.00 | 86 | 1018.4 |
| 20260906170446 | 53 | 334 | 3.5 | 5.2 | 0.00 | 0.00 | 0.00 | 86 | 1018.6 |
| 20260906165943 | 52 | 299 | 4.3 | 4.3 | 0.00 | 0.00 | 0.00 | 86 | 1018.4 |
| 20260906165442 | 52 | 297 | 6.1 | 7.0 | 0.00 | 0.00 | 0.00 | 86 | 1018.7 |
| 20260906164937 | 53 | 335 | 7.8 | 8.7 | 0.00 | 0.00 | 0.00 | 86 | 1018.7 |
| 20260906164436 | 53 | 288 | 6.1 | 7.0 | 0.00 | 0.00 | 0.00 | 86 | 1018.8 |
| 20260906163933 | 53 | 311 | 5.2 | 6.1 | 0.00 | 0.00 | 0.00 | 86 | 1018.8 |
| 20260906163428 | 53 | 293 | 5.2 | 6.1 | 0.00 | 0.00 | 0.00 | 86 | 1018.9 |
| 20260906162926 | 53 | 291 | 6.1 | 7.0 | 0.00 | 0.00 | 0.00 | 86 | 1018.9 |
| 20260906162425 | 53 | 283 | 5.2 | 6.1 | 0.00 | 0.00 | 0.00 | 86 | 1018.7 |
| 20260906161921 | 54 | 277 | 7.0 | 7.8 | 0.00 | 0.00 | 0.00 | 85 | 1018.6 |
| 20260906161420 | 55 | 267 | 7.0 | 7.8 | 0.00 | 0.00 | 0.00 | 85 | 1019.2 |
| 20260906160919 | 54 | 286 | 7.0 | 7.8 | 0.00 | 0.00 | 0.00 | 85 | 1018.8 |
| 20260906160413 | 55 | 262 | 7.8 | 7.8 | 0.00 | 0.00 | 0.00 | 85 | 1018.7 |
| 20260906155911 | 55 | 290 | 6.1 | 7.0 | 0.00 | 0.00 | 0.00 | 85 | 1018.9 |
| 20260906155405 | 55 | 256 | 1.7 | 2.6 | 0.00 | 0.00 | 0.00 | 85 | 1018.9 |
| 20260906154901 | 55 | 242 | 2.6 | 2.6 | 0.00 | 0.00 | 0.00 | 84 | 1018.9 |
| 20260906154355 | 55 | 230 | 0.9 | 1.7 | 0.00 | 0.00 | 0.00 | 84 | 1018.8 |
| 20260906153854 | 55 | 203 | 1.7 | 1.7 | 0.00 | 0.00 | 0.00 | 84 | 1018.8 |
| 20260906153353 | 55 | 170 | 1.7 | 1.7 | 0.00 | 0.00 | 0.00 | 84 | 1018.9 |
| 20260906152848 | 55 | 196 | 2.6 | 2.6 | 0.00 | 0.00 | 0.00 | 84 | 1018.8 |
| 20260906152343 | 55 | 176 | 1.7 | 1.7 | 0.00 | 0.00 | 0.00 | 84 | 1018.9 |
| 20260906151842 | 55 | 174 | 1.7 | 1.7 | 0.00 | 0.00 | 0.00 | 84 | 1018.9 |
| 20260906151338 | 55 | 148 | 3.5 | 4.3 | 0.00 | 0.00 | 0.00 | 84 | 1018.9 |
| 20260906150834 | 55 | 142 | 3.5 | 4.3 | 0.00 | 0.00 | 0.00 | 84 | 1019.1 |
| 20260906150329 | 55 | 157 | 3.5 | 4.3 | 0.00 | 0.00 | 0.00 | 84 | 1018.9 |
| 20260906145828 | 55 | 166 | 2.6 | 2.6 | 0.00 | 0.00 | 0.00 | 84 | 1019.2 |
| 20260906145327 | 55 | 167 | 1.7 | 1.7 | 0.00 | 0.00 | 0.00 | 84 | 1019.1 |
| 20260906144822 | 55 | 121 | 2.6 | 2.6 | 0.00 | 0.00 | 0.00 | 84 | 1019.4 |
| 20260906144317 | 55 | 128 | 1.7 | 1.7 | 0.00 | 0.00 | 0.00 | 84 | 1019.3 |
| 20260906143816 | 55 | 142 | 1.7 | 2.6 | 0.00 | 0.00 | 0.00 | 84 | 1019.2 |
| 20260906143313 | 55 | 158 | 2.6 | 2.6 | 0.00 | 0.00 | 0.00 | 84 | 1019.4 |
| 20260906142809 | 55 | 190 | 1.7 | 1.7 | 0.00 | 0.00 | 0.00 | 84 | 1019.4 |
| 20260906142306 | 55 | 187 | 2.6 | 2.6 | 0.00 | 0.00 | 0.00 | 84 | 1019.7 |
| 20260906141803 | 55 | 183 | 2.6 | 2.6 | 0.00 | 0.00 | 0.00 | 84 | 1019.7 |
| 20260906141257 | 55 | 133 | 1.7 | 1.7 | 0.00 | 0.00 | 0.00 | 83 | 1019.6 |
| 20260906140756 | 55 | 144 | 2.6 | 2.6 | 0.00 | 0.00 | 0.00 | 83 | 1019.5 |
| 20260906140251 | 55 | 155 | 2.6 | 2.6 | 0.00 | 0.00 | 0.00 | 83 | 1019.2 |
| 20260906135749 | 55 | 176 | 1.7 | 1.7 | 0.00 | 0.00 | 0.00 | 83 | 1019.2 |
| 20260906135244 | 55 | 217 | 0.9 | 0.9 | 0.00 | 0.00 | 0.00 | 84 | 1019.4 |
| 20260906134740 | 55 | 157 | 0.9 | 0.9 | 0.00 | 0.00 | 0.00 | 84 | 1019.4 |
| 20260906134235 | 55 | 158 | 0.0 | 0.9 | 0.00 | 0.00 | 0.00 | 84 | 1019.4 |
| 20260906133730 | 55 | 110 | 0.9 | 0.9 | 0.00 | 0.00 | 0.00 | 83 | 1019.4 |
| 20260906133226 | 55 | 146 | 0.9 | 0.9 | 0.00 | 0.00 | 0.00 | 82 | 1019.5 |
| 20260906132721 | 55 | 209 | 0.9 | 0.9 | 0.00 | 0.00 | 0.00 | 82 | 1019.2 |
| 20260906132216 | 55 | 216 | 0.9 | 0.9 | 0.00 | 0.00 | 0.00 | 81 | 1019.6 |
| 20260906131712 | 55 | 177 | 0.9 | 0.9 | 0.00 | 0.00 | 0.00 | 80 | 1019.4 |
| 20260906131207 | 55 | 197 | 0.0 | 0.0 | 0.00 | 0.00 | 0.00 | 79 | 1019.2 |
| 20260906130702 | 55 | 223 | 0.9 | 0.9 | 0.00 | 0.00 | 0.00 | 79 | 1019.4 |
| 20260906130157 | 55 | 220 | 0.9 | 0.9 | 0.00 | 0.00 | 0.00 | 78 | 1019.6 |
| 20260906125655 | 55 | 201 | 0.9 | 0.9 | 0.00 | 0.00 | 0.00 | 78 | 1019.3 |
| 20260906125154 | 55 | 240 | 0.9 | 1.7 | 0.00 | 0.00 | 0.00 | 78 | 1019.3 |
| 20260906124649 | 55 | 227 | 1.7 | 1.7 | 0.00 | 0.00 | 0.00 | 78 | 1019.4 |
| 20260906124144 | 55 | 237 | 2.6 | 2.6 | 0.00 | 0.00 | 0.00 | 78 | 1019.4 |
| 20260906123643 | 55 | 238 | 2.6 | 4.3 | 0.00 | 0.00 | 0.00 | 78 | 1019.4 |
| 20260906123139 | 55 | 189 | 1.7 | 1.7 | 0.00 | 0.00 | 0.00 | 77 | 1019.5 |
| 20260906122638 | 55 | 202 | 0.9 | 0.9 | 0.00 | 0.00 | 0.00 | 77 | 1019.2 |
| 20260906122134 | 55 | 191 | 0.9 | 0.9 | 0.00 | 0.00 | 0.00 | 77 | 1019.3 |
| 20260906121630 | 55 | 203 | 1.7 | 2.6 | 0.00 | 0.00 | 0.00 | 77 | 1019.2 |
| 20260906121126 | 55 | 204 | 2.6 | 2.6 | 0.00 | 0.00 | 0.00 | 78 | 1019.1 |
| 20260906120622 | 54 | 211 | 0.9 | 1.7 | 0.00 | 0.00 | 0.00 | 78 | 1019.1 |
| 20260906120119 | 54 | 251 | 2.6 | 2.6 | 0.00 | 0.00 | 0.00 | 78 | 1018.8 |
| 20260906115618 | 54 | 224 | 1.7 | 1.7 | 0.00 | 0.00 | 0.00 | 78 | 1018.8 |
| 20260906115114 | 54 | 212 | 0.9 | 0.9 | 0.00 | 0.00 | 0.00 | 77 | 1018.8 |
| 20260906114608 | 54 | 200 | 2.6 | 2.6 | 0.00 | 0.00 | 0.00 | 78 | 1018.7 |
| 20260906114103 | 54 | 207 | 1.7 | 1.7 | 0.00 | 0.00 | 0.00 | 78 | 1018.5 |
| 20260906113603 | 54 | 218 | 0.0 | 0.9 | 0.00 | 0.00 | 0.00 | 77 | 1018.7 |
| 20260906113057 | 54 | 221 | 0.9 | 0.9 | 0.00 | 0.00 | 0.00 | 77 | 1018.6 |
| 20260906112551 | 54 | 255 | 0.9 | 0.9 | 0.00 | 0.00 | 0.00 | 77 | 1018.8 |
| 20260906112049 | 54 | 259 | 0.9 | 0.9 | 0.00 | 0.00 | 0.00 | 77 | 1018.4 |
| 20260906111548 | 54 | 312 | 0.9 | 0.9 | 0.00 | 0.00 | 0.00 | 77 | 1018.3 |
| 20260906111043 | 54 | 283 | 0.9 | 0.9 | 0.00 | 0.00 | 0.00 | 77 | 1018.5 |
| 20260906110543 | 54 | 359 | 0.9 | 0.9 | 0.00 | 0.00 | 0.00 | 77 | 1018.2 |
| 20260906110042 | 54 | 82 | 0.9 | 0.9 | 0.00 | 0.00 | 0.00 | 77 | 1018.4 |
| 20260906105537 | 53 | 76 | 0.9 | 0.9 | 0.00 | 0.00 | 0.00 | 77 | 1018.3 |
| 20260906105033 | 54 | 83 | 0.0 | 0.0 | 0.00 | 0.00 | 0.00 | 77 | 1018.2 |
| 20260906104532 | 53 | 78 | 0.0 | 0.9 | 0.00 | 0.00 | 0.00 | 77 | 1018.2 |
| 20260906104027 | 53 | 47 | 0.9 | 0.9 | 0.00 | 0.00 | 0.00 | 77 | 1018.5 |
| 20260906103525 | 53 | 86 | 0.9 | 0.9 | 0.00 | 0.00 | 0.00 | 77 | 1018.6 |
| 20260906103020 | 53 | 90 | 0.9 | 0.9 | 0.00 | 0.00 | 0.00 | 77 | 1018.5 |
| 20260906102520 | 53 | 121 | 0.0 | 0.0 | 0.00 | 0.00 | 0.00 | 77 | 1018.6 |
| 20260906102015 | 53 | 125 | 0.0 | 0.0 | 0.00 | 0.00 | 0.00 | 77 | 1018.7 |
| 20260906101509 | 53 | 128 | 0.0 | 0.0 | 0.00 | 0.00 | 0.00 | 77 | 1018.4 |
| 20260906101004 | 53 | 129 | 0.0 | 0.0 | 0.00 | 0.00 | 0.00 | 77 | 1018.5 |
| 20260906100500 | 53 | 129 | 0.0 | 0.0 | 0.00 | 0.00 | 0.00 | 77 | 1018.7 |
| 20260906095954 | 53 | 107 | 0.0 | 0.0 | 0.00 | 0.00 | 0.00 | 77 | 1018.5 |
| 20260906095449 | 53 | 88 | 0.0 | 0.9 | 0.00 | 0.00 | 0.00 | 77 | 1018.3 |
| 20260906094944 | 53 | 63 | 0.9 | 0.9 | 0.00 | 0.00 | 0.00 | 77 | 1018.4 |
| 20260906094438 | 53 | 59 | 0.9 | 0.9 | 0.00 | 0.00 | 0.00 | 77 | 1018.5 |
| 20260906093934 | 53 | 153 | 0.0 | 0.9 | 0.00 | 0.00 | 0.00 | 77 | 1018.3 |
| 20260906093430 | 53 | 184 | 0.0 | 0.0 | 0.00 | 0.00 | 0.00 | 77 | 1018.4 |
| 20260906092930 | 53 | 168 | 0.9 | 0.9 | 0.00 | 0.00 | 0.00 | 78 | 1018.5 |
| 20260906092430 | 52 | 169 | 1.7 | 1.7 | 0.00 | 0.00 | 0.00 | 79 | 1018.4 |
| 20260906091925 | 51 | 135 | 0.0 | 0.9 | 0.00 | 0.00 | 0.00 | 79 | 1018.5 |
| 20260906091421 | 52 | 105 | 0.0 | 0.0 | 0.00 | 0.00 | 0.00 | 79 | 1018.2 |
| 20260906090917 | 52 | 100 | 0.0 | 0.0 | 0.00 | 0.00 | 0.00 | 78 | 1018.3 |
| 20260906090412 | 53 | 100 | 0.9 | 0.9 | 0.00 | 0.00 | 0.00 | 78 | 1018.6 |
| 20260906085906 | 52 | 212 | 0.9 | 0.9 | 0.00 | 0.00 | 0.00 | 78 | 1018.5 |
| 20260906085400 | 53 | 228 | 0.9 | 0.9 | 0.00 | 0.00 | 0.00 | 77 | 1018.5 |
| 20260906084900 | 53 | 186 | 1.7 | 1.7 | 0.00 | 0.00 | 0.00 | 77 | 1018.5 |
| 20260906084354 | 53 | 151 | 4.3 | 5.2 | 0.00 | 0.00 | 0.00 | 77 | 1018.5 |
| 20260906083848 | 53 | 155 | 2.6 | 2.6 | 0.00 | 0.00 | 0.00 | 77 | 1018.6 |
| 20260906083344 | 54 | 143 | 2.6 | 4.3 | 0.00 | 0.00 | 0.00 | 77 | 1018.5 |
| 20260906082843 | 53 | 143 | 3.5 | 4.3 | 0.00 | 0.00 | 0.00 | 77 | 1018.7 |
| 20260906082338 | 53 | 143 | 4.3 | 5.2 | 0.00 | 0.00 | 0.00 | 77 | 1018.6 |
| 20260906081835 | 53 | 144 | 2.6 | 2.6 | 0.00 | 0.00 | 0.00 | 77 | 1018.7 |
| 20260906081330 | 53 | 142 | 3.5 | 4.3 | 0.00 | 0.00 | 0.00 | 77 | 1018.8 |
| 20260906080826 | 53 | 150 | 3.5 | 4.3 | 0.00 | 0.00 | 0.00 | 78 | 1019.1 |
| 20260906080322 | 52 | 140 | 4.3 | 5.2 | 0.00 | 0.00 | 0.00 | 78 | 1019.1 |
| 20260906075821 | 52 | 163 | 4.3 | 5.2 | 0.00 | 0.00 | 0.00 | 77 | 1019.1 |
| 20260906075316 | 52 | 123 | 4.3 | 5.2 | 0.00 | 0.00 | 0.00 | 77 | 1019.1 |
| 20260906074811 | 52 | 129 | 6.1 | 6.1 | 0.00 | 0.00 | 0.00 | 78 | 1019.2 |
| 20260906074311 | 53 | 151 | 3.5 | 4.3 | 0.00 | 0.00 | 0.00 | 77 | 1019.4 |
| 20260906073810 | 53 | 162 | 0.9 | 0.9 | 0.00 | 0.00 | 0.00 | 77 | 1019.7 |
| 20260906073305 | 54 | 190 | 2.6 | 2.6 | 0.00 | 0.00 | 0.00 | 76 | 1019.8 |
| 20260906072801 | 54 | 223 | 2.6 | 2.6 | 0.00 | 0.00 | 0.00 | 76 | 1020.1 |
| 20260906072257 | 54 | 213 | 2.6 | 2.6 | 0.00 | 0.00 | 0.00 | 76 | 1019.9 |
| 20260906071752 | 54 | 216 | 1.7 | 1.7 | 0.00 | 0.00 | 0.00 | 76 | 1020.1 |
| 20260906071252 | 54 | 192 | 0.9 | 0.9 | 0.00 | 0.00 | 0.00 | 76 | 1020.1 |
| 20260906070749 | 54 | 203 | 1.7 | 1.7 | 0.00 | 0.00 | 0.00 | 75 | 1019.9 |
| 20260906070244 | 53 | 208 | 0.9 | 0.9 | 0.00 | 0.00 | 0.00 | 74 | 1019.9 |
| 20260906065744 | 53 | 197 | 0.9 | 0.9 | 0.00 | 0.00 | 0.00 | 73 | 1020.1 |
| 20260906065239 | 53 | 202 | 1.7 | 1.7 | 0.00 | 0.00 | 0.00 | 73 | 1020.2 |
| 20260906064735 | 53 | 209 | 1.7 | 1.7 | 0.00 | 0.00 | 0.00 | 73 | 1020.1 |
| 20260906064230 | 53 | 208 | 0.9 | 0.9 | 0.00 | 0.00 | 0.00 | 72 | 1020.1 |
| 20260906063725 | 54 | 223 | 0.9 | 0.9 | 0.00 | 0.00 | 0.00 | 72 | 1020.2 |
| 20260906063221 | 53 | 214 | 0.9 | 1.7 | 0.00 | 0.00 | 0.00 | 72 | 1020.2 |
| 20260906062716 | 53 | 237 | 0.9 | 0.9 | 0.00 | 0.00 | 0.00 | 72 | 1019.9 |
| 20260906062215 | 54 | 232 | 0.9 | 1.7 | 0.00 | 0.00 | 0.00 | 72 | 1020.3 |
| 20260906061711 | 54 | 203 | 0.9 | 0.9 | 0.00 | 0.00 | 0.00 | 72 | 1020.1 |
| 20260906061207 | 54 | 209 | 0.9 | 0.9 | 0.00 | 0.00 | 0.00 | 72 | 1020.3 |
| 20260906060703 | 54 | 227 | 0.0 | 0.9 | 0.00 | 0.00 | 0.00 | 71 | 1020.2 |
| 20260906060200 | 54 | 232 | 0.9 | 1.7 | 0.00 | 0.00 | 0.00 | 71 | 1020.3 |
| 20260906055655 | 54 | 264 | 1.7 | 1.7 | 0.00 | 0.00 | 0.00 | 71 | 1020.3 |
| 20260906055150 | 54 | 268 | 2.6 | 2.6 | 0.00 | 0.00 | 0.00 | 71 | 1020.5 |
| 20260906054646 | 55 | 264 | 2.6 | 2.6 | 0.00 | 0.00 | 0.00 | 71 | 1020.4 |
| 20260906054140 | 55 | 257 | 2.6 | 2.6 | 0.00 | 0.00 | 0.00 | 71 | 1020.4 |
| 20260906053638 | 55 | 259 | 3.5 | 4.3 | 0.00 | 0.00 | 0.00 | 70 | 1020.2 |
| 20260906053138 | 55 | 267 | 4.3 | 4.3 | 0.00 | 0.00 | 0.00 | 70 | 1020.1 |
| 20260906052633 | 55 | 233 | 4.3 | 6.1 | 0.00 | 0.00 | 0.00 | 70 | 1019.9 |
| 20260906052130 | 56 | 259 | 2.6 | 2.6 | 0.00 | 0.00 | 0.00 | 69 | 1019.7 |
| 20260906051626 | 57 | 328 | 2.6 | 2.6 | 0.00 | 0.00 | 0.00 | 68 | 1019.7 |
| 20260906051126 | 57 | 325 | 3.5 | 4.3 | 0.00 | 0.00 | 0.00 | 67 | 1019.7 |
| 20260906050621 | 58 | 350 | 4.3 | 5.2 | 0.00 | 0.00 | 0.00 | 67 | 1019.5 |
| 20260906050116 | 58 | 348 | 3.5 | 4.3 | 0.00 | 0.00 | 0.00 | 66 | 1019.6 |
| 20260906045614 | 58 | 354 | 4.3 | 5.2 | 0.00 | 0.00 | 0.00 | 66 | 1019.6 |
| 20260906045110 | 58 | 354 | 2.6 | 2.6 | 0.00 | 0.00 | 0.00 | 66 | 1019.5 |
| 20260906044606 | 59 | 1 | 3.5 | 4.3 | 0.00 | 0.00 | 0.00 | 65 | 1019.6 |
| 20260906044101 | 59 | 1 | 5.2 | 7.0 | 0.00 | 0.00 | 0.00 | 64 | 1019.4 |
| 20260906043557 | 59 | 11 | 6.1 | 7.0 | 0.00 | 0.00 | 0.00 | 63 | 1019.1 |
| 20260906043053 | 59 | 24 | 3.5 | 4.3 | 0.00 | 0.00 | 0.00 | 63 | 1019.2 |
| 20260906042551 | 60 | 29 | 3.5 | 4.3 | 0.00 | 0.00 | 0.00 | 63 | 1018.9 |
| 20260906042046 | 60 | 55 | 3.5 | 5.2 | 0.00 | 0.00 | 0.00 | 62 | 1018.9 |
| 20260906041543 | 60 | 34 | 7.0 | 7.8 | 0.00 | 0.00 | 0.00 | 62 | 1018.7 |
| 20260906041037 | 60 | 58 | 4.3 | 5.2 | 0.00 | 0.00 | 0.00 | 61 | 1018.5 |
| 20260906040532 | 60 | 23 | 3.5 | 5.2 | 0.00 | 0.00 | 0.00 | 60 | 1018.7 |
| 20260906040028 | 61 | 24 | 6.1 | 8.7 | 0.00 | 0.00 | 0.00 | 59 | 1018.5 |
| 20260906035522 | 61 | 43 | 8.7 | 12.2 | 0.00 | 0.00 | 0.00 | 58 | 1018.3 |
| 20260906035019 | 62 | 42 | 13.9 | 17.4 | 0.00 | 0.00 | 0.00 | 57 | 1017.9 |
| 20260906034518 | 62 | 52 | 7.8 | 9.6 | 0.00 | 0.00 | 0.00 | 57 | 1018.1 |
| 20260906034014 | 62 | 24 | 9.6 | 13.9 | 0.00 | 0.00 | 0.00 | 56 | 1018.1 |
| 20260906033508 | 62 | 50 | 8.7 | 11.3 | 0.00 | 0.00 | 0.00 | 54 | 1018.1 |
| 20260906033004 | 63 | 41 | 7.0 | 9.6 | 0.00 | 0.00 | 0.00 | 53 | 1018.2 |
| 20260906032501 | 64 | 352 | 8.7 | 13.0 | 0.00 | 0.00 | 0.00 | 50 | 1017.8 |
| 20260906032000 | 66 | 21 | 9.6 | 13.0 | 0.00 | 0.00 | 0.00 | 47 | 1017.5 |
| 20260906031456 | 66 | 359 | 9.6 | 12.2 | 0.00 | 0.00 | 0.00 | 43 | 1017.6 |
| 20260906030951 | 67 | 43 | 5.2 | 7.0 | 0.00 | 0.00 | 0.00 | 41 | 1017.4 |
| 20260906030446 | 67 | 47 | 3.5 | 4.3 | 0.00 | 0.00 | 0.00 | 41 | 1017.4 |
| 20260906025940 | 67 | 35 | 0.9 | 0.9 | 0.00 | 0.00 | 0.00 | 40 | 1017.3 |
| 20260906025434 | 68 | 29 | 3.5 | 4.3 | 0.00 | 0.00 | 0.00 | 39 | 1016.9 |
| 20260906024933 | 69 | 38 | 2.6 | 2.6 | 0.00 | 0.00 | 0.00 | 39 | 1016.8 |
| 20260906024432 | 68 | 61 | 3.5 | 4.3 | 0.00 | 0.00 | 0.00 | 39 | 1017.1 |
| 20260906023927 | 69 | 63 | 2.6 | 2.6 | 0.00 | 0.00 | 0.00 | 38 | 1016.9 |
| 20260906023424 | 69 | 74 | 7.0 | 7.8 | 0.00 | 0.00 | 0.00 | 37 | 1016.8 |
| 20260906022924 | 69 | 80 | 7.0 | 11.3 | 0.00 | 0.00 | 0.00 | 37 | 1016.9 |
| 20260906022419 | 69 | 48 | 8.7 | 9.6 | 0.00 | 0.00 | 0.00 | 36 | 1016.7 |
| 20260906021915 | 69 | 37 | 6.1 | 7.0 | 0.00 | 0.00 | 0.00 | 37 | 1016.7 |
| 20260906021414 | 70 | 42 | 9.6 | 11.3 | 0.00 | 0.00 | 0.00 | 36 | 1016.5 |
| 20260906020908 | 70 | 57 | 9.6 | 11.3 | 0.00 | 0.00 | 0.00 | 36 | 1016.4 |
| 20260906020403 | 70 | 30 | 8.7 | 11.3 | 0.00 | 0.00 | 0.00 | 36 | 1016.4 |
| 20260906015857 | 70 | 42 | 4.3 | 7.0 | 0.00 | 0.00 | 0.00 | 36 | 1016.5 |
| 20260906015357 | 70 | 47 | 8.7 | 9.6 | 0.00 | 0.00 | 0.00 | 36 | 1016.4 |
| 20260906014857 | 71 | 69 | 10.4 | 12.2 | 0.00 | 0.00 | 0.00 | 35 | 1016.7 |
| 20260906014356 | 71 | 51 | 7.8 | 9.6 | 0.00 | 0.00 | 0.00 | 35 | 1016.4 |
| 20260906013853 | 71 | 44 | 7.0 | 7.8 | 0.00 | 0.00 | 0.00 | 35 | 1016.5 |
| 20260906013348 | 71 | 79 | 4.3 | 6.1 | 0.00 | 0.00 | 0.00 | 35 | 1016.3 |
| 20260906012844 | 72 | 37 | 7.8 | 9.6 | 0.00 | 0.00 | 0.00 | 34 | 1016.2 |
| 20260906012339 | 72 | 51 | 8.7 | 11.3 | 0.00 | 0.00 | 0.00 | 33 | 1016.1 |
| 20260906011838 | 72 | 47 | 6.1 | 7.0 | 0.00 | 0.00 | 0.00 | 33 | 1016.2 |
| 20260906011333 | 73 | 43 | 6.1 | 7.8 | 0.00 | 0.00 | 0.00 | 32 | 1016.2 |
| 20260906010829 | 73 | 24 | 6.1 | 7.0 | 0.00 | 0.00 | 0.00 | 31 | 1016.3 |
| 20260906010325 | 74 | 18 | 7.8 | 9.6 | 0.00 | 0.00 | 0.00 | 31 | 1016.3 |
| 20260906005820 | 74 | 17 | 7.8 | 9.6 | 0.00 | 0.00 | 0.00 | 31 | 1016.3 |
| 20260906005319 | 74 | 34 | 6.1 | 6.1 | 0.00 | 0.00 | 0.00 | 31 | 1016.5 |
| 20260906004818 | 74 | 25 | 6.1 | 7.8 | 0.00 | 0.00 | 0.00 | 31 | 1016.3 |
| 20260906004318 | 74 | 60 | 7.0 | 11.3 | 0.00 | 0.00 | 0.00 | 30 | 1016.3 |
| 20260906003813 | 74 | 43 | 7.0 | 8.7 | 0.00 | 0.00 | 0.00 | 30 | 1015.9 |
| 20260906003309 | 74 | 30 | 9.6 | 11.3 | 0.00 | 0.00 | 0.00 | 30 | 1016.5 |
| 20260906002804 | 75 | 39 | 10.4 | 12.2 | 0.00 | 0.00 | 0.00 | 30 | 1016.3 |
| 20260906002306 | 75 | 32 | 10.4 | 12.2 | 0.00 | 0.00 | 0.00 | 30 | 1016.4 |
| 20260906001800 | 75 | 61 | 6.1 | 8.7 | 0.00 | 0.00 | 0.00 | 30 | 1016.4 |
| 20260906001254 | 75 | 25 | 8.7 | 9.6 | 0.00 | 0.00 | 0.00 | 29 | 1016.5 |
| 20260906000749 | 75 | 35 | 8.7 | 12.2 | 0.00 | 0.00 | 0.00 | 30 | 1016.5 |
| 20260906000244 | 75 | 22 | 8.7 | 11.3 | 0.00 | 0.00 | 0.00 | 29 | 1016.7 |
| 20260905235739 | 75 | 15 | 9.6 | 11.3 | 0.00 | 0.00 | 0.00 | 29 | 1016.5 |
| 20260905235238 | 75 | 2 | 8.7 | 11.3 | 0.00 | 0.00 | 0.00 | 29 | 1016.6 |
| 20260905234734 | 75 | 26 | 7.8 | 9.6 | 0.00 | 0.00 | 0.00 | 29 | 1016.4 |
| 20260905234229 | 75 | 25 | 6.1 | 7.0 | 0.00 | 0.00 | 0.00 | 29 | 1016.6 |
| 20260905233725 | 76 | 35 | 7.8 | 9.6 | 0.00 | 0.00 | 0.00 | 29 | 1016.7 |
| 20260905233224 | 75 | 19 | 8.7 | 11.3 | 0.00 | 0.00 | 0.00 | 29 | 1016.4 |
| 20260905232719 | 75 | 15 | 11.3 | 13.9 | 0.00 | 0.00 | 0.00 | 29 | 1016.6 |
| 20260905232214 | 75 | 26 | 7.8 | 9.6 | 0.00 | 0.00 | 0.00 | 30 | 1016.4 |
| 20260905231710 | 75 | 52 | 8.7 | 9.6 | 0.00 | 0.00 | 0.00 | 30 | 1016.2 |
| 20260905231206 | 75 | 64 | 6.1 | 7.8 | 0.00 | 0.00 | 0.00 | 30 | 1016.4 |
| 20260905230702 | 75 | 17 | 9.6 | 11.3 | 0.00 | 0.00 | 0.00 | 30 | 1016.5 |
| 20260905230159 | 75 | 19 | 7.8 | 8.7 | 0.00 | 0.00 | 0.00 | 30 | 1016.6 |